Weather Roundup
Issued by NWS Chicago, IL

Home | Current Version | Previous Version | Text Only | Print | Product List | Glossary On
Versions: 1 2 3 4 5 6 7 8 9 10 11 12 13 14 15 16 17 18 19 20 21 22 23 24 25 26 27 28 29 30 31 32 33 34 35 36 37 38 39 40 41 42 43 44 45 46 47 48 49 50
000
NZUS59 KLOT 290008
HRRLOT

CHICAGO AREA WEATHER ROUNDUP
NATIONAL WEATHER SERVICE CHICAGO/ROMEOVILLE IL
700 PM CDT SUN AUG 28 2016

NOTE: "FAIR" INDICATES FEW OR NO CLOUDS BELOW 12,000 FEET WITH NO
SIGNIFICANT WEATHER AND/OR OBSTRUCTIONS TO VISIBILITY.

* THESE STATIONS ARE NOT UNDER NWS QUALITY CONTROL. THEY ALSO MAY NOT
  REPORT WEATHER SUCH AS PRECIPITATION OR FOG.

ILZ005-006-012>014-019>023-290100-
NORTHEAST ILLINOIS

CITY           SKY/WX    TMP DP  RH WIND       PRES   REMARKS
OHARE          CLOUDY    75  68  78 E8        30.17S
6HR MIN TEMP:  75; 6HR MAX TEMP:  83;

MIDWAY         CLOUDY    76  68  76 NE10      30.17S
6HR MIN TEMP:  76; 6HR MAX TEMP:  83;

AURORA         CLOUDY    77  71  82 CALM      30.17S
6HR MIN TEMP:  77; 6HR MAX TEMP:  88;

LANSING*       CLOUDY    74  72  94 NE6       30.17F
JOLIET*        CLOUDY    76  74  93 NE3       30.16F
WAUKEGAN       MOCLDY    72  68  87 NE6       30.18S
6HR MIN TEMP:  72; 6HR MAX TEMP:  76;

DUPAGE AIRPORT CLOUDY    78  69  73 E5        30.17R HX  80
6HR MIN TEMP:  78; 6HR MAX TEMP:  86;

WHEELING       CLOUDY    74  68  81 E6        30.18F
6HR MIN TEMP:  74; 6HR MAX TEMP:  80;

KANKAKEE*      DRIZZLE   73  71  94 NE3       30.16F
MORRIS*        LGT RAIN  73  70  92 CALM      30.16S
LEWIS AIRPORT* CLOUDY    75  73  92 NE5       30.16F
$$

WIZ051-052-058>065-066-070>072-290100-
SOUTHEAST WISCONSIN

CITY           SKY/WX    TMP DP  RH WIND       PRES   REMARKS
MILWAUKEE      PTCLDY    72  67  84 SE7       30.19R
6HR MIN TEMP:  71; 6HR MAX TEMP:  76;

KENOSHA*       PTCLDY    71  67  87 E7        30.19S
RACINE*        CLEAR     72  67  84 E7        30.21R
BURLINGTON     PTCLDY    72  66  81 E6        30.19R
WAUKESHA       PTCLDY    73  66  78 SE8       30.20R
$$

INZ001>003-010>013-019-020-290100-
NORTHWEST INDIANA

CITY           SKY/WX    TMP DP  RH WIND       PRES   REMARKS
GARY*          MOCLDY    75  73  94 NE8       30.17F
MICHIGAN CITY* NOT AVBL
RENSSELAER*    NOT AVBL
VALPARAISO     CLOUDY    74  71  91 N3        30.18S
$$

LMZ740>746-290100-
SOUTHERN LAKE MICHIGAN

STATION/POSITION TIME  SKY/WX   TEMP WIND        PRES    VSBY
                                AIR  DIR/SP/G
                 (UTC)          (F)  (DEG/KT/KT) (MB)    (MI)
HARRISON CRIB    2300            74   50/  9/  9   N/A
BURNHAM HARBOR   0000            73   20/  4/  6   N/A
CALUMET HARBOR   2300            73   50/  5/  6 1021.6R
BURNS HARBOR     0001            74   70/  6/  9 1022.0S
MICHIGAN CITY    2300            74   30/ 11/ 12   N/A
$$

ABBREVIATIONS USED IN REMARKS
   TC - TEMPERATURE IN CELSIUS
  WCI - WIND CHILL INDEX
   HX - HEAT INDEX
  VSB - VISIBILITY
$$




USA.gov is the U.S. government's official web portal to all federal, state and local government web resources and services.